Flag for Japan Weather past 2 weeks in Sendai, Japan

Now
54 °F

Partly cloudy.


Feels Like: 52 °F
Forecast: 45 / 58 °F
Wind: 7 mph from North

Location: Sendai Airport

Current Time: Oct 23, 2014 at 12:53:35 AM

Latest Report: Oct 22, 2014 at 9:00 PM


Visibility: N/A

Pressure: 30.04 "Hg

Humidity: 82%

Dew point: 48 °F

Location of SendaiLocation

Historic Weather in Sendai — Graph

°F

Sendai temperature yesterday

Maximum temperature yesterday: 57 °F (at 6:00 AM)
Minimum temperature yesterday: 54 °F (at 12:00 PM)
Average temperature yesterday: 54 °F

Past Weeks' High & Low Weather Summary

 TemperatureHumidityPressure
High77 °F (Oct 10, 1:00 PM)100% (Oct 13, 6:00 PM)30.36 "Hg (Oct 13, 6:00 PM)
Low46 °F (Oct 18, 6:00 AM)33% (Oct 11, 2:00 PM)29.06 "Hg (Oct 14, 5:45 AM)
Average61 °F71%30.06 "Hg
* Reported Oct 7 9:00 PM — Oct 22 9:00 PM, Sendai, Weather by CustomWeather, © 2014

Note: Actual official high and low records may vary slightly from our data, if they occured in-between our weather recording intervals... More about our weather records

Advertising

Sendai weather history for previous 24 hours

 ConditionsComfort  
Time TempWeatherWind HumidityBarometerVisibility
9:00 PM
Oct 22
54 °FPartly cloudy.7 mph82%30.04 "HgN/A
8:00 PM54 °FPartly cloudy.6 mph82%30.04 "HgN/A
7:00 PM54 °FPartly cloudy.7 mph88%30.01 "HgN/A
6:00 PM54 °FPassing clouds.9 mph88%30.01 "HgN/A
5:00 PM54 °FSprinkles. Partly cloudy.7 mph88%29.98 "HgN/A
4:00 PM54 °FBroken clouds.6 mph88%29.98 "HgN/A
3:00 PM54 °FSprinkles. Broken clouds.7 mph88%29.98 "HgN/A
2:00 PM54 °FSprinkles. Broken clouds.5 mph88%29.98 "Hg5 mi
1:00 PM54 °FSprinkles. Broken clouds.6 mph94%29.98 "HgN/A
12:00 PM54 °FSprinkles. Broken clouds.9 mph94%29.98 "Hg5 mi
11:00 AM55 °FSprinkles. Broken clouds.9 mph88%29.98 "HgN/A
10:00 AM55 °FSprinkles. Broken clouds.8 mph94%29.98 "Hg5 mi
9:00 AM55 °FSprinkles. Broken clouds.9 mph88%29.98 "Hg5 mi
8:00 AM55 °FSprinkles. Broken clouds.9 mph94%29.98 "Hg5 mi
7:00 AM57 °FSprinkles. Broken clouds.5 mph94%29.95 "HgN/A
6:00 AM57 °FSprinkles. Broken clouds.2 mph94%29.95 "HgN/A
Weather by CustomWeather, © 2014

See weather overviewHow to use our weather pages